Wichita, KS

1:03 PM CDT on May 22, 2017 (GMT -0500)
Wichita Eisenhower National Airport

Weather History for KICT - October, 2014

Change the Weather History Date:

Sunday, October 5, 2014

  Actual Average Record
Temperature  
Mean Temperature 67 °F 62 °F  
Max Temperature 85 °F 74 °F 95 °F (1947)
Min Temperature 48 °F 51 °F 36 °F (1991)
Degree Days  
Heating Degree Days 0 5  
Month to date heating degree days 26 22  
Since 1 July heating degree days 47 65  
Cooling Degree Days 2 2  
Month to date cooling degree days 16 13  
Year to date cooling degree days 1787 1662  
Growing Degree Days 16 (Base 50)    
Moisture  
Dew Point 39 °F    
Average Humidity 47    
Maximum Humidity 77    
Minimum Humidity 16    
Precipitation  
Precipitation T in 0.10 in 0.97 in (2001)
Month to date precipitation 0.15 0.53  
Year to date precipitation 22.60 27.76  
Snow  
Snow 0.00 in 0.00 in 0.00 in (2007)
Month to date snowfall 0.0 0.0  
Since 1 July snowfall 0.0 0.0  
Since 1 September snowfall 0.0 0.0  
Snow Depth 0.00 in    
Sea Level Pressure  
Sea Level Pressure 29.82 in    
Wind  
Wind Speed 9 mph (NW)    
Max Wind Speed 30 mph    
Max Gust Speed 40 mph    
Visibility 10 miles    
Events      
T = Trace of Precipitation, MM = Missing Value Source: NWS Daily Summary

Daily Weather History Graph

Daily Weather History Graph

Search for Another Location

Airport or City:

Trip Planner

Search our weather history database for the weather conditions in past years. The results will help you decide how hot, cold, wet, or windy it might be!

Date:

Astronomy

Oct. 05, 2014 Rise Set
Actual Time 7:28 AM CDT 7:06 PM CDT
Civil Twilight 7:02 AM CDT 7:32 PM CDT
Nautical Twilight 6:32 AM CDT 8:03 PM CDT
Astronomical Twilight 6:01 AM CDT 8:33 PM CDT
Moon 5:22 PM CDT (10/5) 4:10 AM CDT (10/5)
Length of Visible Light 12h 30m
Length of Day
11h 37m
Waxing Gibbous, 89% of the Moon is Illuminated
Oct 5
Waxing Gibbous
Oct 8
Full
Oct 15
Last Quarter
Oct 23
New
Oct 30
First Quarter

Hourly Weather History & Observations

Time (CDT) Temp. Dew Point Humidity Pressure Visibility Wind Dir Wind Speed Gust Speed Precip Events Conditions
12:53 AM 53.1 °F 36.0 °F 52% 29.82 in 10.0 mi SW 5.8 mph - N/A   Partly Cloudy
1:53 AM 51.1 °F 37.0 °F 59% 29.83 in 10.0 mi West 3.5 mph - N/A   Partly Cloudy
2:53 AM 52.0 °F 37.0 °F 57% 29.83 in 10.0 mi WNW 3.5 mph - N/A   Clear
3:53 AM 52.0 °F 37.0 °F 57% 29.81 in 10.0 mi Calm Calm - N/A   Mostly Cloudy
4:53 AM 54.0 °F 39.0 °F 57% 29.81 in 10.0 mi NNW 5.8 mph - N/A   Mostly Cloudy
5:53 AM 51.1 °F 39.0 °F 63% 29.82 in 10.0 mi WNW 3.5 mph - N/A   Scattered Clouds
6:53 AM 52.0 °F 39.0 °F 61% 29.82 in 10.0 mi WNW 3.5 mph - N/A   Mostly Cloudy
7:53 AM 54.0 °F 39.0 °F 57% 29.83 in 8.0 mi NNW 3.5 mph - N/A   Mostly Cloudy
8:53 AM 59.0 °F 39.9 °F 49% 29.84 in 10.0 mi NNW 5.8 mph - N/A   Mostly Cloudy
9:53 AM 64.9 °F 39.9 °F 40% 29.85 in 10.0 mi NNW 5.8 mph - N/A   Scattered Clouds
10:53 AM 73.0 °F 39.0 °F 29% 29.85 in 10.0 mi West 5.8 mph - N/A   Scattered Clouds
11:53 AM 80.1 °F 36.0 °F 20% 29.83 in 10.0 mi NW 15.0 mph - N/A   Scattered Clouds
12:53 PM 80.6 °F 37.4 °F 21% 29.86 in 10.0 mi NNW 15.0 mph 21.9 mph N/A   Scattered Clouds
1:53 PM 82.9 °F 37.9 °F 20% 29.81 in 10.0 mi NNW 9.2 mph - N/A   Scattered Clouds
2:53 PM 84.0 °F 36.0 °F 18% 29.79 in 10.0 mi WNW 18.4 mph 24.2 mph N/A   Scattered Clouds
3:53 PM 84.9 °F 34.0 °F 16% 29.77 in 10.0 mi NW 17.3 mph - N/A   Mostly Cloudy
4:53 PM 81.0 °F 36.0 °F 20% 29.77 in 10.0 mi NW 12.7 mph - N/A   Mostly Cloudy
5:53 PM 80.1 °F 37.0 °F 21% 29.77 in 10.0 mi NNW 9.2 mph - N/A   Mostly Cloudy
6:53 PM 75.9 °F 39.9 °F 27% 29.77 in 10.0 mi NW 4.6 mph - N/A   Mostly Cloudy
7:53 PM 75.9 °F 39.0 °F 26% 29.82 in 10.0 mi NNW 16.1 mph 21.9 mph N/A   Mostly Cloudy
8:53 PM 66.9 °F 48.0 °F 51% 29.85 in 10.0 mi WNW 9.2 mph - 0.00 in   Overcast
9:53 PM 66.9 °F 46.9 °F 49% 29.87 in 10.0 mi West 12.7 mph - 0.00 in   Mostly Cloudy
10:53 PM 62.1 °F 48.0 °F 60% 29.85 in 10.0 mi WNW 8.1 mph - 0.00 in   Scattered Clouds
11:53 PM 55.9 °F 48.0 °F 75% 29.84 in 10.0 mi West 8.1 mph - N/A   Mostly Cloudy